JAS 2

Satellite information

Favourite Embed

Satellite Type and Status

PAYLOADIN ORBIT

Key statistics

Satellite JAS 2 at a glance.

Uptime

10711

Days in orbit

Revolutions

≈ 13.5

Per day

Orbit

SSO

Sun Synchronous Orbit

Inclination

98.5

Latest

Satellite identification and parameters

Extended collection of information and parameters for JAS 2.

Object identification

Identified? True

Debris? False

Object name: JAS 2

International designator: 1996-046B

Object number (NORAD): 24278

Object ID (CCSDS): 24278

Country: JAPAN (JPN)

Current information (Y/N): Y

RCS size: MEDIUM

Orbital parameters

Period: 106.409 minutes

Inclination: 98.5462 deg

SMA: 7438.415 km

Apoapsis: 1320.021 km

Periapsis: 800.539 km

RAAN: 216.5442 deg

Eccentricy: 0.03491889

Argument of periapsis: 217.9679 deg

Mean anomaly: 139.6374 deg

Mean motion: 13.53262926 rev/day

Mean motion (dot): -0.00000021 rev/day2

B* drag term: 0.000015784133 1/REarth

Two-line elements (TLE)

Creation date: Dec. 14, 2025, 3:07 a.m.

Reference frame: TEME

Reference center: EARTH

Epoch: Dec. 13, 2025, 12:17 p.m. UTC

TLE line 0: 0 JAS 2

TLE line 1: 1 24278U 96046B 25347.51236067 -.00000021 00000-0 15784-4 0 9992

TLE line 2: 2 24278 98.5462 216.5442 0349189 217.9679 139.6374 13.53262926448051

Live tracking on map

Real-time ground track for satellite JAS 2.

In-orbit conjunctions

There are no conjunctions computed for JAS 2, at the moment. Check back to stay up to date, as we update our databases every day.

Go to all conjunctions

Associated space launch

Primary applications of ADEOS (Advanced Earth Observation Satellite), which has been renamed Midori after reaching orbit, include monitoring global environmental changes such as maritime meteorological conditions, atmospheric ozone, and gases that promote global warming. ADEOS was also expected to play a vital role in developing more sophisticated inter-orbit communications and platform technology for the satellite of tomorrow. ADEOS was launched by H-2 Launch Vehicle No.4 on August 1996 and provided a large volume of data containing valuable information about our environment atmosphere, ocean and land for about 10 months until it suddenly got out of control on 30 June 1997 because of the structural damage in its solar array paddle.

JAS 2 was lifted into orbit during the mission ‘H-II | Midori’, on board a H-II space rocket.

The launch took place on Aug. 17, 1996, 1:53 a.m. from Yoshinobu Launch Complex LP-1.

For more information about the launch, click the button.

Launch to space H-II | Midori
H-II | Midori

Agency: N/A

Status: Launch Successful

Launch date: Aug. 17, 1996, 1:53 a.m. UTC

Rocket: H-II

Launch pad: Yoshinobu Launch Complex LP-1

Location: Tanegashima Space Center, Japan

...

Latest news about this satellite

There are no fresh news available about this satellite. Check back as we update our databases every day.


Newsletter sign-up

Weekly statistics, charts and insights to help you stay on top of the space industry.